EHI
0 0 0 0 0 0 0 0 0 0 0 0 0 0 0 0 0 0 0 0 0 0 0 0 0 0 0 0 0 0 0 0 0 0 0 0 0 0 0 0 0 0 0 0
0 0 0 0 0 0 0 0 0 0 0 0 0 0 0 0 0 0 0 0 0 0 0 0 0 0 0 0 0 0 0 0 0 0 0 0 0 0 0 0 0 0 0 0
0 0 0 0 0 0 0 0 0 0 0 0 0 0 0 0 0 0 0 0 0 0 0 0 0 0 0 0 0 0 0 0 0 0 0 0 0 0 0 0 0 0 0 0
0 0 0 0 0 0 0 0 0 0 0 0 0 0 0 0 0 0 0 0 0 0 0 0 0 0 0 0 0 0 0 0 0 0 0 0 0 0 0 0 0 0 0 0
0 0 0 0 0 0 0 0 0 0 0 0 0 0 0 0 0 0 0 0 0 0 0 0 0 0 0 0 0 0 0 0 0 0 0 0 0 0 0 0 0 0 0 0
0 0 0 0 0 0 0 0 0 0 0 0 0 0 0 0 0 0 0 0 0 0 0 0 0 0 0 0 0 0 0 0 0 0 0 0 0 0 0 0 0 0 0 0
0 0 0 0 0 0 0 0 0 0 0 0 0 0 0 0 0 0 0 0 0 0 0 0 0 0 0 0 0 0 0 0 0 0 0 0 0 0 0 0 0 0 0 0
0 0 0 0 0 0 0 0 0 0 0 0 0 0 0 0 0 0 0 0 0 0 0 0 0 0 0 0 0 0 0 0 0 0 0 0 0 0 0 0 0 0 0 0
0 0 0 0 0 0 0 0 0 0 0 0 0 0 0 0 0 0 0 0 0 0 0 0 0 0 0 0 0 0 0 0 0 0 0 0 0 0 0 0 0 0 0 0
0 0 0 0 0 0 0 0 0 0 0 0 0 0 0 0 0 0 0 0 0 0 0 0 0 0 0 0 0 0 0 0 0 0 0 0 0 0 0 0 0 0 0 0
0 0 0 0 0 0 0 0 0 0 0 0 0 0 0 0 0 0 0 0 0 0 0 0 0 0 0 0 0 0 0 0 0 0 0 0 0 0 0 0 0 0 0 0
0 0 0 0 0 0 0 0 0 0 0 0 0 0 0 0 0 0 0 0 0 0 0 0 0 0 0 0 0 0 0 0 0 0 0 0 0 0 0 0 0 0 0 0
0 0 0 0 0 0 0 0 0 0 0 0 0 0 0 0 0 0 0 0 0 0 0 0 0 0 0 0 0 0 0 0 0 0 0 0 0 0 0 0 0 0 0 0
0 0 0 0 0 0 0 0 0 0 0 0 0 0 0 0 0 0 0 0 0 0 0 0 0 0 0 0 0 0 0 0 0 0 0 0 0 0 0 0 0 0 0 0
0 0 0 0 0 0 0 0 0 0 0 0 0 0 0 0 0 0 0 0 0 0 0 0 0 0 0 0 0 0 0 0 0 0 0 0 0 0 0 0 0 0 0 0
0 0 0 0 0 0 0 0 0 0 0 0 0 0 0 0 0 0 0 0 0 0 0 0 0 0 0 0 0 0 0 0 0 0 0 0 0 0 0 0 0 0 0 0
0 0 0 0 0 0 0 0 0 0 0 0 0 0 0 0 0 0 0 0 0 0 0 0 0 0 0 0 0 0 0 0 0 0 0 0 0 0 0 0 0 0 0 0
0 0 0 0 0 0 0 0 0 0 0 0 0 0 0 0 0 0 0 0 0 0 0 0 0 0 0 0 0 0 0 0 0 0 0 0 0 0 0 0 0 0 0 0
0 0 0 0 0 0 0 0 0 0 0 0 0 0 0 0 0 0 0 0 0 0 0 0 0 0 0 0 0 0 0 0 0 0 0 0 0 0 0 0 0 0 0 0
0 0 0 0 0 0 0 0 0 0 0 0 0 0 0 0 0 0 0 0 0 0 0 0 0 0 0 0 0 0 0 0 0 0 0 0 0 0 0 0 0 0 0 0
0 0 0 0 0 0 0 0 0 0 0 0 0 0 0 0 0 0 0 0 0 0 0 0 0 0 0 0 0 0 0 0 0 0 0 0 0 0 0 0 0 0 0 0
0 0 0 0 0 0 0 0 0 0 0 0 0 0 0 0 0 0 0 0 0 0 0 0 0 0 0 0 0 0 0 0 0 0 0 0 0 0 0 0 0 0 0 0
0 0 0 0 0 0 0 0 0 0 0 0 0 0 0 0 0 0 0 0 0 0 0 0 0 0 0 0 0 0 0 0 0 0 0 0 0 0 0 0 0 0 0 0
0 0 0 0 0 0 0 0 0 0 0 0 0 0 0 0 0 0 0 0 0 0 0 0 0 0 0 0 0 0 0 0 0 0 0 0 0 0 0 0 0 0 0 0
0 0 0 0 0 0 0 0 0 0 0 0 0 0 0 0 0 0 0 0 0 0 0 0 0 0 0 0 0 0 0 0 0 0 0 0 0 0 0 0 0 0 0 0
0 0 0 0 0 0 0 0 0 0 0 0 0 0 0 0 0 0 0 0 0 0 0 0 0 0 0 0 0 0 0 0 0 0 0 0 0 0 0 0 0 0 0 0
Wind_Speed
4 4 6 8 10 6 4 4 4 2 4 2 7 10 11 9 8 10 10 9 10 10 10 10 12 12 11 10 11 12 12 12 9 7 7 7 7 5 5 5 7 8 10 12
3 7 7 2 2 1 1 4 5 1 4 1 6 12 11 12 12 11 11 10 10 10 9 10 11 12 13 13 12 11 12 12 12 10 8 5 5 5 5 5 6 7 9 12
7 2 4 5 3 2 4 6 6 4 2 4 4 10 11 12 13 11 10 9 9 10 10 8 9 11 12 13 13 12 12 12 12 10 6 4 4 3 5 7 8 8 9 10
8 3 4 4 5 6 6 5 4 2 3 4 4 7 6 6 5 8 8 9 10 10 10 8 8 9 11 12 11 11 10 10 10 10 9 10 10 10 10 6 6 7 8 10
5 7 6 6 5 7 2 4 3 1 2 4 3 5 9 6 7 8 9 10 10 9 7 6 6 7 8 9 9 9 10 10 10 10 11 10 9 7 4 5 7 8 8 9
2 2 2 2 2 4 7 4 3 1 2 6 8 8 9 7 9 7 7 5 1 1 2 3 3 4 3 5 7 7 8 9 9 9 10 11 10 8 7 8 8 7 6 7
5 4 2 2 5 4 5 5 2 3 4 9 8 9 9 7 3 1 1 2 1 2 2 1 2 3 4 5 6 7 7 8 8 9 9 10 10 9 10 9 8 8 7 7
10 9 12 9 8 9 8 8 9 8 6 5 2 10 9 2 1 0 3 6 4 3 3 3 4 5 5 7 7 7 8 7 8 9 9 8 9 7 7 8 7 8 8 8
7 7 8 9 4 10 8 8 5 2 1 4 8 8 5 3 3 5 7 6 5 3 3 4 4 4 5 6 7 7 7 7 7 8 8 8 8 9 8 8 8 7 7 7
3 1 4 4 2 3 2 5 4 5 5 6 9 9 7 6 10 8 6 4 3 0 1 1 2 2 3 4 5 6 7 7 7 7 7 7 8 9 8 7 8 8 8 8
5 4 3 2 9 10 5 4 6 6 6 7 7 10 3 4 7 5 2 1 2 2 1 0 1 2 3 3 3 5 6 6 7 8 8 8 8 8 9 9 9 8 7 9
5 3 5 7 5 3 8 10 9 7 7 4 5 12 3 4 5 5 4 2 2 1 1 0 1 2 3 4 5 5 6 7 8 8 8 8 8 8 9 10 9 8 8 9
5 5 3 1 0 1 4 8 10 8 4 6 8 15 2 5 4 3 1 1 1 1 2 2 2 3 5 5 6 7 7 8 8 7 8 8 9 10 11 11 9 8 8 8
4 3 7 10 5 4 4 6 8 9 9 11 15 20 12 2 0 2 3 3 3 3 3 3 4 5 5 6 6 7 8 8 8 8 8 10 11 11 10 9 8 8 8 9
5 4 6 9 8 4 3 6 8 12 13 12 13 18 24 7 5 5 5 5 5 5 5 6 6 7 6 6 6 7 7 7 7 8 9 11 10 8 8 8 8 7 8 8
7 5 4 8 10 8 9 11 12 12 12 15 16 23 20 11 8 8 8 7 7 7 7 7 8 8 8 7 7 6 6 6 6 8 9 9 7 7 7 7 7 7 7 7
5 5 5 6 4 4 12 16 17 14 14 12 18 22 14 13 11 9 8 9 10 10 10 10 9 9 8 7 6 6 5 4 5 7 7 6 6 6 6 6 6 7 7 6
5 4 3 2 4 11 10 6 14 18 19 17 15 16 14 13 12 11 9 9 11 10 10 10 8 8 6 4 3 3 2 2 3 5 5 5 5 5 5 5 6 6 5 6
8 6 4 4 6 7 8 7 6 8 12 9 11 11 11 11 10 10 6 7 8 8 7 7 6 6 6 5 4 3 3 2 3 4 4 4 4 5 4 5 5 4 4 4
13 11 7 6 6 9 8 3 3 4 8 2 2 5 8 8 6 7 10 11 11 10 7 7 6 6 5 5 5 4 4 3 3 4 3 3 3 4 4 4 3 3 3 3
9 10 14 13 10 9 9 4 2 6 5 3 4 4 6 5 6 10 13 10 9 8 7 5 6 5 4 5 5 4 3 3 3 2 1 0 1 2 2 2 2 3 3 4
8 8 10 10 10 11 3 1 2 1 1 2 3 4 6 8 10 10 11 11 9 8 6 5 5 5 4 4 3 3 2 2 2 2 3 3 3 3 3 4 4 4 5 4
6 6 5 7 7 3 1 2 1 2 1 3 4 5 6 8 10 11 11 11 9 7 5 4 4 5 4 4 3 2 2 2 2 4 4 4 5 4 4 4 4 4 4 3
3 1 2 4 5 3 3 2 1 1 1 4 6 7 6 8 10 12 11 10 9 8 5 3 4 4 3 3 4 3 3 1 3 4 4 4 5 5 4 4 3 3 3 3
3 1 2 5 5 6 5 4 3 4 5 7 8 8 8 9 11 11 11 10 8 7 4 3 3 3 2 2 3 4 4 1 3 4 4 4 5 5 4 4 4 4 3 3
6 6 5 7 5 5 8 7 7 8 9 10 10 11 9 8 10 11 10 8 6 5 3 2 2 1 1 1 2 4 4 1 3 4 4 4 4 4 4 4 5 10 8 9
Wind_Direction
183 203 200 202 213 254 2 324 288 89 110 194 250 261 263 255 229 227 231 234 236 232 220 203 193 186 183 185 187 187 186 187 186 189 192 196 205 203 202 201 200 195 186 183
146 232 228 227 165 192 276 299 301 330 113 177 275 274 266 253 245 236 236 236 236 238 230 213 193 180 183 187 191 192 193 189 191 196 192 187 184 200 203 198 205 203 193 188
200 178 180 140 128 174 227 234 253 271 154 212 268 285 248 243 230 230 233 240 247 243 237 221 196 184 182 188 193 198 199 195 193 188 175 175 181 185 196 203 205 206 200 193
229 166 118 161 191 190 236 225 223 296 327 283 212 289 291 281 227 219 230 239 244 244 238 228 206 192 187 191 188 192 196 197 193 185 187 187 194 202 205 199 199 198 201 200
219 155 151 185 201 196 139 61 92 175 236 279 230 255 270 248 249 237 230 235 237 234 224 215 198 186 184 180 181 187 191 197 194 192 193 197 207 211 196 189 192 197 201 203
75 67 142 161 82 143 125 103 94 136 207 255 205 220 265 223 229 229 225 227 187 84 74 94 106 114 143 158 169 177 186 196 195 195 196 201 207 204 206 202 197 196 197 203
186 181 144 108 106 108 161 146 164 219 222 248 196 214 245 218 214 181 256 304 63 80 75 103 149 172 180 174 174 177 186 196 194 196 202 204 205 206 213 210 200 193 193 202
191 200 180 184 170 166 197 186 175 194 222 265 215 232 252 257 117 139 260 264 267 242 221 223 217 204 196 188 179 180 191 200 196 199 206 206 204 211 221 216 202 200 202 204
212 211 156 175 169 156 172 218 219 229 282 295 260 257 268 182 233 254 259 263 264 249 222 219 215 207 194 184 184 186 192 200 201 201 204 209 209 213 221 220 208 202 198 193
275 207 109 102 55 309 213 172 145 182 199 241 264 251 239 211 225 246 267 279 277 198 145 189 198 193 178 172 177 182 192 200 203 202 206 211 214 217 221 222 220 211 199 189
212 188 141 156 196 188 178 194 182 185 186 188 258 261 202 166 184 198 216 92 69 67 78 121 171 153 146 148 169 188 198 203 204 205 206 210 215 217 218 223 223 214 202 192
185 205 196 203 203 216 201 201 186 185 223 215 237 261 147 94 116 123 109 83 49 50 23 345 176 177 186 204 206 207 208 211 210 205 208 214 215 217 221 226 222 211 207 198
146 163 151 169 201 217 229 218 212 223 215 211 224 262 127 117 102 112 129 261 288 272 248 258 244 228 221 216 211 214 217 218 212 204 209 216 218 219 224 225 220 211 205 200
109 185 203 200 162 155 204 226 220 216 226 235 236 257 261 228 283 282 280 277 267 257 252 255 260 253 243 229 218 215 220 215 208 203 210 221 225 223 224 221 215 210 203 200
135 206 240 266 288 305 269 260 243 232 234 237 248 257 265 267 286 289 293 290 286 281 271 265 264 264 263 255 243 229 225 216 205 205 216 228 231 226 222 218 214 208 204 201
175 201 219 252 255 260 260 250 248 249 248 253 265 265 270 292 293 293 296 299 296 291 286 281 277 275 272 269 261 246 238 226 207 212 223 231 230 224 222 218 209 205 203 195
173 174 191 238 214 230 243 230 229 234 235 238 250 261 281 287 286 287 293 296 290 287 285 284 282 277 273 270 267 262 255 237 215 225 231 232 230 229 224 214 206 205 200 190
168 157 194 221 168 225 237 212 213 228 238 238 247 261 270 275 282 280 278 282 284 288 289 288 289 288 288 295 306 311 318 287 246 244 246 243 235 235 226 212 210 205 191 188
199 186 203 214 230 257 267 241 219 227 245 239 247 266 282 292 293 287 323 329 313 311 312 315 320 318 321 333 349 348 324 301 270 259 254 243 229 227 219 215 210 196 185 183
208 204 208 217 226 231 238 225 226 228 252 319 323 322 327 335 306 300 343 333 326 327 328 329 330 328 330 349 3 345 315 305 285 277 265 246 216 208 209 206 194 176 169 171
190 203 216 224 233 249 256 258 185 215 231 352 7 350 339 318 288 300 311 312 314 313 316 323 324 321 336 356 352 322 313 304 304 308 328 13 153 173 173 155 140 134 129 129
179 188 205 213 226 241 266 49 173 177 351 329 340 335 317 300 297 302 305 304 306 306 311 321 316 313 340 352 337 309 314 333 1 49 65 63 68 80 98 108 105 110 117 118
207 199 195 201 216 203 113 132 121 109 342 324 319 313 306 300 299 302 302 303 302 298 300 312 306 305 329 345 338 307 331 358 66 81 81 77 75 73 85 101 105 102 106 114
231 200 218 261 263 295 331 331 354 65 293 295 294 293 293 290 294 298 298 297 297 297 297 298 292 289 309 349 351 336 330 27 102 102 98 93 91 84 77 80 89 98 103 112
208 168 214 252 282 323 304 284 290 300 291 285 285 282 278 280 283 286 289 288 288 290 292 282 266 269 295 356 355 341 330 53 112 109 106 101 97 99 89 79 77 86 75 95
213 207 215 239 243 257 270 268 279 287 284 282 284 285 280 268 270 277 278 279 279 280 285 275 260 257 317 5 357 340 330 340 125 115 107 103 102 97 96 95 82 74 79 77